This demonstration page uses our WeatherBlox Daily Observations layout. Learn more.

Left ArrowRight Arrow

Hourly Observations for October 27, 2021

Temp ( °F °C ) Dew Point ( °F °C ) Humidity (%) Winds ( mph kmh ) Pressure ( in mb ) Visibility ( mi km ) Precip ( " mm )
12:15 am 00:15 Cloudy 52 11 43 6 72 72 NW 23 37 29.69 1006 10 16 N/A
12:35 am 00:35 Cloudy 52 11 43 6 72 72 NW 18 30 29.69 1006 10 16 N/A
12:55 am 00:55 Cloudy 52 11 43 6 72 72 NW 26 43 29.69 1006 10 16 N/A
1:15 am 01:15 Cloudy 52 11 43 6 72 72 NW 24 39 29.69 1006 10 16 N/A
1:35 am 01:35 Cloudy 52 11 43 6 72 72 NNW 17 28 29.70 1006 10 16 N/A
1:55 am 01:55 Cloudy 52 11 43 6 72 72 NNW 18 30 29.70 1006 10 16 N/A
2:15 am 02:15 Cloudy 52 11 43 6 72 72 NNW 20 31 29.70 1006 10 16 N/A
2:35 am 02:35 Cloudy 52 11 45 7 77 77 NNW 24 39 29.70 1006 10 16 N/A
2:55 am 02:55 Cloudy 52 11 45 7 77 77 NNW 18 30 29.71 1006 10 16 N/A
3:15 am 03:15 Cloudy 52 11 45 7 77 77 NNW 22 35 29.71 1006 10 16 N/A
3:35 am 03:35 Cloudy 52 11 45 7 77 77 NNW 22 35 29.72 1007 10 16 N/A
3:55 am 03:55 Cloudy 52 11 45 7 77 77 NNW 20 31 29.72 1007 10 16 N/A
4:15 am 04:15 Cloudy 52 11 45 7 77 77 NNW 15 24 29.73 1007 10 16 N/A
4:35 am 04:35 Cloudy 52 11 45 7 77 77 NNW 18 30 29.74 1007 10 16 N/A
4:55 am 04:55 Cloudy 52 11 45 7 77 77 NNW 18 30 29.75 1008 10 16 N/A
5:15 am 05:15 Cloudy 52 11 46 8 82 82 NNW 18 30 29.76 1008 10 16 N/A
5:35 am 05:35 Cloudy 50 10 46 8 88 88 NW 15 24 29.77 1008 10 16 N/A
5:55 am 05:55 Cloudy 52 11 46 8 82 82 NNW 20 31 29.76 1008 10 16 N/A
6:15 am 06:15 Cloudy 52 11 46 8 82 82 NW 20 31 29.76 1008 10 16 N/A
6:35 am 06:35 Mostly Cloudy 52 11 46 8 82 82 NNW 18 30 29.77 1008 10 16 N/A
6:55 am 06:55 Cloudy 52 11 46 8 82 82 NNW 10 17 29.78 1009 10 16 N/A
7:15 am 07:15 Cloudy 52 11 46 8 82 82 NNW 13 20 29.78 1009 10 16 N/A
7:35 am 07:35 Mostly Cloudy 52 11 46 8 82 82 NNW 12 19 29.79 1009 10 16 N/A
7:55 am 07:55 Partly Cloudy 52 11 46 8 82 82 NNW 12 19 29.79 1009 10 16 N/A
8:15 am 08:15 Partly Cloudy 52 11 46 8 82 82 N 10 17 29.80 1009 10 16 N/A
8:35 am 08:35 Partly Cloudy 54 12 46 8 77 77 NNW 14 22 29.81 1010 10 16 N/A
8:55 am 08:55 Partly Cloudy 54 12 46 8 77 77 NW 12 19 29.82 1010 10 16 N/A
9:15 am 09:15 Partly Cloudy 54 12 46 8 77 77 NW 17 28 29.83 1010 10 16 N/A
9:35 am 09:35 Partly Cloudy 55 13 48 9 77 77 NNW 12 19 29.83 1010 10 16 N/A
9:55 am 09:55 Partly Cloudy 55 13 48 9 77 77 N 18 30 29.83 1010 10 16 N/A
10:15 am 10:15 Sunny 57 14 50 10 77 77 NNW 18 30 29.83 1010 10 16 N/A
10:35 am 10:35 Sunny 59 15 50 10 72 72 NNW 17 28 29.83 1010 10 16 N/A
10:55 am 10:55 Sunny 61 16 50 10 68 68 NNW 20 31 29.82 1010 10 16 N/A
11:15 am 11:15 Sunny 61 16 50 10 68 68 NNW 13 20 29.82 1010 10 16 N/A
11:35 am 11:35 Sunny 63 17 52 11 68 68 NNW 13 20 29.82 1010 10 16 N/A
11:55 am 11:55 Sunny 63 17 52 11 68 68 NNW 17 28 29.82 1010 10 16 N/A
12:15 pm 12:15 Sunny 63 17 52 11 68 68 NW 15 24 29.83 1010 10 16 N/A
12:35 pm 12:35 Sunny 64 18 52 11 64 64 NNW 22 35 29.81 1010 10 16 N/A
12:55 pm 12:55 Sunny 64 18 52 11 64 64 NNW 16 26 29.81 1010 10 16 N/A
1:15 pm 13:15 Sunny 64 18 52 11 64 64 N 18 30 29.81 1010 10 16 N/A
1:35 pm 13:35 Sunny 66 19 52 11 60 60 NNW 16 26 29.81 1010 10 16 N/A
1:55 pm 13:55 Sunny 68 20 52 11 56 56 N 17 28 29.80 1009 10 16 N/A
2:15 pm 14:15 Sunny 68 20 52 11 56 56 NNW 21 33 29.80 1009 10 16 N/A
2:35 pm 14:35 Sunny 68 20 52 11 56 56 NNW 21 33 29.80 1009 10 16 N/A
2:55 pm 14:55 Sunny 68 20 52 11 56 56 NNW 18 30 29.80 1009 10 16 N/A
3:15 pm 15:15 Sunny 68 20 54 12 60 60 NNW 17 28 29.80 1009 10 16 N/A
3:35 pm 15:35 Sunny 68 20 54 12 60 60 NNW 15 24 29.80 1009 10 16 N/A
3:55 pm 15:55 Sunny 68 20 54 12 60 60 N 13 20 29.80 1009 10 16 N/A
4:15 pm 16:15 Sunny 68 20 54 12 60 60 N 15 24 29.80 1009 10 16 N/A
4:35 pm 16:35 Sunny 68 20 54 12 60 60 N 15 24 29.81 1010 10 16 N/A
4:55 pm 16:55 Sunny 68 20 54 12 60 60 NNW 10 17 29.81 1010 10 16 N/A
5:15 pm 17:15 Sunny 68 20 54 12 60 60 N 12 19 29.81 1010 10 16 N/A
5:35 pm 17:35 Sunny 68 20 54 12 60 60 NNW 9 15 29.82 1010 10 16 N/A
5:55 pm 17:55 Sunny 64 18 54 12 68 68 NNW 7 11 29.82 1010 10 16 N/A
6:15 pm 18:15 Sunny 64 18 54 12 68 68 NNW 8 13 29.83 1010 10 16 N/A
6:35 pm 18:35 Clear 63 17 52 11 68 68 NNW 8 13 29.84 1010 10 16 N/A
6:55 pm 18:55 Clear 63 17 52 11 68 68 N 9 15 29.85 1011 10 16 N/A
7:15 pm 19:15 Clear 63 17 52 11 68 68 N 7 11 29.85 1011 10 16 N/A
7:35 pm 19:35 Clear 61 16 52 11 72 72 N 10 17 29.86 1011 10 16 N/A
7:55 pm 19:55 Clear 61 16 52 11 72 72 NNW 9 15 29.87 1011 10 16 N/A
8:15 pm 20:15 Clear 59 15 52 11 77 77 NNW 12 19 29.88 1012 10 16 N/A
8:35 pm 20:35 Clear 59 15 52 11 77 77 NNW 8 13 29.88 1012 10 16 N/A
8:55 pm 20:55 Clear 59 15 52 11 77 77 N 8 13 29.88 1012 10 16 N/A
9:15 pm 21:15 Clear 57 14 52 11 82 82 NNW 8 13 29.89 1012 10 16 N/A
9:35 pm 21:35 Clear 57 14 52 11 82 82 NNW 6 9 29.90 1013 10 16 N/A
9:55 pm 21:55 Clear 55 13 52 11 88 88 NNW 6 9 29.91 1013 10 16 N/A
10:15 pm 22:15 Clear 55 13 52 11 88 88 NNW 8 13 29.91 1013 10 16 N/A
10:35 pm 22:35 Clear 55 13 52 11 88 88 N 7 11 29.91 1013 10 16 N/A
10:55 pm 22:55 Clear 55 13 50 10 82 82 N 6 9 29.91 1013 10 16 N/A
11:15 pm 23:15 Clear 55 13 50 10 82 82 NNW 7 11 29.91 1013 10 16 N/A
11:35 pm 23:35 Clear 55 13 50 10 82 82 NNW 7 11 29.92 1013 10 16 N/A
11:55 pm 23:55 Clear 54 12 50 10 88 88 NNW 6 9 29.92 1013 10 16 N/A

Powered by AerisWeather